Location: Carrer del Canonge
(41.4901°N, 2.2931°E)
Time: 03:59:37
(UTC+00:00)

Cosmos 1428 Rocket - Pass Details

Date: 18 September 2020
Orbit: 947 x 989 km, 82.9° (Epoch: 25 October)

Event Time Altitude Azimuth Distance (km) Brightness Sun altitude
Rises 20:10:15 0° 355° (N) 3,698 8.0 -25.3°
Reaches altitude 10° 20:12:50 10° 360° (N) 2,741 7.2 -25.7°
Enters shadow 20:18:53 60° 72° (ENE) 1,108 4.5 -26.7°
